Location: Catstown
(52.4386°N, 7.2633°W)
Time: 11:40:12
(UTC+00:00)

Cosmos 1833 Rocket - Pass Details

Date: 21 January 2021
Orbit: 833 x 839 km, 71.0° (Epoch: 24 February)

Event Time Altitude Azimuth Distance (km) Brightness Sun altitude
Rises 19:11:51 0° 329° (NNW) 3,393 6.2 -20.2°
Reaches altitude 10° 19:14:23 10° 335° (NNW) 2,456 5.3 -20.6°
Maximum altitude 19:19:51 50° 51° (NE) 1,058 2.8 -21.4°
Enters shadow 19:20:45 46° 81° (E) 1,118 2.8 -21.6°
